Starlink 33635

operational
NORAD ID: 63065 Int'l Des: 2025-035 Owner: SPXS Country: US Constellation: starlink
LEOCIRCULAR

About Starlink 33635

Description loading...

Live Position

Loading 3D Globe...

Upcoming Passes

Altitude History

Altitude vs Time

uPlot chart will show altitude changes over time

Two-Line Element Set

1 63065U 25035P 25258.15045016 .00052435 00000-0 18984-2 0 9990
2 63065 43.0055 58.4031 0002002 269.2665 90.7957 15.27632349 32880
Epoch: Sep 15, 2025 • Age: 13 hours

Current Status

Altitude 482.1 km
Velocity 7.63 km/s
Sub-Earth Point 11.79°N, 170.18°W
Launch Date Feb 21, 2025
Age 0.5 years
Type internet

Technical Details

Classification Payload
Mass 575.00 kg
Dry Mass 530.00 kg
Total Mass 575.00 kg
Length 0.30 m
Diameter 4.10 m
Span 29.00 m
Shape Box + pan
Manufacturer SPXS
Bus Type Starlink V2MO
Phase Status In Orbit
Owner/State SPXS/US

Large Constellations

Loading constellations...